Regional Weather Roundup
Issued by NWS Upton, NY

Current Version | Previous Version | Text Only | Print | Product List | Glossary Off
Versions: 1 2 3 4 5 6 7 8 9 10 11 12 13 14 15 16 17 18 19 20 21 22 23 24 25 26 27
000 ASUS41 KOKX 181408 RWROKX Regional Weather Roundup National Weather Service New York NY 900 AM EST MON DEC 18 2017 Note: "FAIR" indicates few or no clouds below 12,000 feet with no significant weather and/or obstructions to visibility. NYZ071-072-176-178-NJZ106-104-181500- New York City Metro Area CITY SKY/WX TMP DP RH WIND PRES REMARKS Central Park CLOUDY 38 33 82 N5 30.13F WCI 34 Bronx Bot Gard N/A 36 32 87 N6 30.11F WCI 31 Bronx Lehman C N/A 36 32 87 N2 N/A LaGuardia Arpt CLOUDY 37 31 78 NE8 30.11F WCI 31 Queens College N/A 36 32 87 N3 N/A Kennedy Intl CLOUDY 37 35 92 NE6 30.12S WCI 32 Breezy Point N/A 36 N/A N/A NE6 N/A WCI 31 Brooklyn Coll N/A 37 34 87 N2 N/A Staten Island N/A 36 32 87 N3 N/A Newark/Liberty CLOUDY 36 31 82 N6 30.11F WCI 31 Teterboro CLOUDY 36 28 73 N6 30.11F WCI 31 $$ NYZ177-179-078>081-181500- Long Island New York CITY SKY/WX TMP DP RH WIND PRES REMARKS Jones Beach N/A 36 N/A N/A NE7 N/A WCI 30 Wantagh N/A 36 32 87 N5 N/A WCI 32 Matinecock Pt N/A 37 N/A N/A E6 N/A WCI 33 Farmingdale CLOUDY 35 31 85 NE3 30.11F MacArthur/ISP CLOUDY 34 28 79 NE3 30.10F Shirley CLOUDY 34 27 75 CALM 30.12F Mt Sinai Harb N/A N/A N/A N/A MISG N/A Westhampton CLOUDY 36 28 73 CALM 30.12F East Hampton CLOUDY 38 31 76 CALM 30.11F Southold N/A 37 30 75 E5 N/A WCI 34 Montauk N/A 43 33 68 SE3 30.13F $$ NYZ052-065-067-181500- Hudson Valley CITY SKY/WX TMP DP RH WIND PRES REMARKS White Plains CLOUDY 34 27 75 NE5 30.09F WCI 30 Larchmont Harb N/A 34 N/A N/A N6 N/A WCI 29 Croton On Huds N/A 34 N/A N/A N1 N/A Somers N/A 32 25 74 NE1 N/A Brewster N/A 30 23 74 NE1 N/A Newburgh CLOUDY 28 23 80 CALM 30.11F Montgomery CLOUDY 29 20 69 CALM 30.10F Otisville N/A 28 23 80 S1 N/A Warwick N/A 30 23 74 NE1 N/A Suffern N/A 32 28 86 N2 N/A Poughkeepsie CLOUDY 30 21 69 CALM 30.12F Albany FLURRIES 24 15 68 CALM 30.09F $$ NJZ001-105-106-008-010-013-015-019>022-104-181500- New Jersey CITY SKY/WX TMP DP RH WIND PRES REMARKS Newark/Liberty CLOUDY 36 31 82 N6 30.11F WCI 31 Teterboro CLOUDY 36 28 73 N6 30.11F WCI 31 Caldwell CLOUDY 34 27 75 CALM 30.12F Somerville CLOUDY 35 29 78 N5 30.10F WCI 31 Linden CLOUDY 36 30 80 CALM 30.11F Perth Amboy N/A 36 N/A N/A N2 N/A Sussex CLOUDY 30 21 69 CALM 30.10F Andover NOT AVBL Trenton CLOUDY 36 32 85 N3 30.11S Millville MOSUNNY 42 38 85 W5 30.11R Atlantic City MOSUNNY 45 39 79 NW5 30.10S Wrightstown CLOUDY 37 34 88 N3 30.08R Toms River CLOUDY 40 38 93 CALM 30.11R Belmar CLOUDY 40 39 97 NW6 30.11S FOG $$ PAZ047>061-062-071-181500- Eastern Pennsylvania CITY SKY/WX TMP DP RH WIND PRES REMARKS Philadelphia PTSUNNY 40 33 76 N6 30.12S Allentown CLOUDY 37 31 78 CALM 30.11S HAZE Scranton CLOUDY 35 30 82 CALM 30.06S HAZE $$ CTZ002-004>006-009-010-012-RIZ004-006-007-MAZ004-011-015-181500- Southern New England In CT CITY SKY/WX TMP DP RH WIND PRES REMARKS Bradley Intl CLOUDY 26 15 63 CALM 30.15F Hartford CLOUDY 29 15 56 N5 30.16S WCI 24 Danbury CLOUDY 30 21 69 NE3 30.13R Wtrbury/Oxford CLOUDY 28 20 71 NE3 30.11R Norwalk Harbor N/A N/A N/A N/A N9 N/A Bridgeport NOT AVBL Meriden CLOUDY 29 15 56 N3 30.14S New Haven CLOUDY 33 21 61 N7 30.13F WCI 27 Chester CLOUDY 30 18 59 CALM 30.12S Groton CLOUDY 33 20 58 NE6 30.14F WCI 28 Willimantic CLOUDY 28 17 63 N3 30.16S In RI CITY SKY/WX TMP DP RH WIND PRES REMARKS Providence CLOUDY 29 17 61 N5 30.17F WCI 24 Block Island CLOUDY 40 32 73 SE8 30.14F WCI 34 Westerly CLOUDY 31 19 61 N6 30.15F WCI 25 In MA CITY SKY/WX TMP DP RH WIND PRES REMARKS Boston CLOUDY 28 11 48 S5 30.18F WCI 23 Worcester CLOUDY 22 9 57 S3 30.10F Westfield CLOUDY 25 12 58 CALM 30.13F Provincetown CLOUDY 31 20 63 SE3 30.18F Nantucket CLOUDY 34 21 59 SE6 30.18F WCI 29 $$ ANZ330-335-338-340-345-350-353-355-181500- Coastal Marine Observations STATION/POSITION TIME SKY/WX TEMP WIND PRES VSBY WAVE AIR SEA DIR/SP/G HT/PER (UTC) (F) (DEG/KT/KT) (MB) (MI) (FT/S) NY Harb Entrance 1250 46 51 90/ 14/ 16 1018.4 2/ 4 20 S Fire Island 1250 46 51 70/ 10/ 14 1019.3 2/ 4 15 E Barnegat Li 1330 49 N/A 2/ 7 Hudson Canyon 1250 53 54 160/ 10/ 12 1018.3 2/ 4 Kings Point 1342 34 42 70/ 5/ 7 1020.6 Execution Rocks 1330 37 70/ 8/ 12 N/A Western LI Sound NOT AVBL Central LI Sound 1330 40 110/ 12/ 14 N/A 1 Robbins Reef 1342 36 310/ 6/ 7 1020.2 $$ >>>>>>>>>>>>>>>>>>>>>>>>>>>> KEY <<<<<<<<<<<<<<<<<<<<<<<<<<< > < > SKY/WX - Sky Condition/Present Weather < > TMP - Temperature in Fahrenheit < > DP - Dew Point in Fahrenheit < > RH - Relative Humidity in Percent < > WIND - Direction (from) and Speed in MPH < > PRES - Mean Sea Level Pressure (inches of Hg) < > WCI - Wind Chill Index < > VSB - Visibility in Miles < > HX - Heat Index < > TC - Temperature in Celsius < > VRB - Varibale Wind Direction < > < >>>>>>>>>>>>>>>>>>>>>>>>>>>> KEY <<<<<<<<<<<<<<<<<<<<<<<<<<<

USA.gov is the U.S. government's official web portal to all federal, state and local government web resources and services.